Year,Month,Day,Hour,Minute,Value (Times are PST for temperature in C)
2008,05,07,00,00,7.90
2008,05,07,00,01,7.80
2008,05,07,00,02,7.80
2008,05,07,00,03,7.80
2008,05,07,00,04,7.80
2008,05,07,00,05,7.70
2008,05,07,00,06,7.70
2008,05,07,00,07,7.70
2008,05,07,00,08,7.70
2008,05,07,00,09,7.70
2008,05,07,00,10,7.70
2008,05,07,00,11,7.60
2008,05,07,00,12,7.60
2008,05,07,00,13,7.60
2008,05,07,00,14,7.60
2008,05,07,00,15,7.60
2008,05,07,00,16,7.60
2008,05,07,00,17,7.60
2008,05,07,00,18,7.70
2008,05,07,00,19,7.70
2008,05,07,00,20,7.70
2008,05,07,00,21,7.70
2008,05,07,00,22,7.70
2008,05,07,00,23,7.60
2008,05,07,00,24,7.60
2008,05,07,00,25,7.60
2008,05,07,00,26,7.60
2008,05,07,00,27,7.60
2008,05,07,00,28,7.60
2008,05,07,00,29,7.60
2008,05,07,00,30,7.60
2008,05,07,00,31,7.60
2008,05,07,00,32,7.60
2008,05,07,00,33,7.60
2008,05,07,00,34,7.60
2008,05,07,00,35,7.60
2008,05,07,00,36,7.70
2008,05,07,00,37,7.70
2008,05,07,00,38,7.70
2008,05,07,00,39,7.70
2008,05,07,00,40,7.70
2008,05,07,00,41,7.70
2008,05,07,00,42,7.70
2008,05,07,00,43,7.70
2008,05,07,00,44,7.70
2008,05,07,00,45,7.70
2008,05,07,00,46,7.70
2008,05,07,00,47,7.70
2008,05,07,00,48,7.70
2008,05,07,00,49,7.70
2008,05,07,00,50,7.60
2008,05,07,00,51,7.60
2008,05,07,00,52,7.70
2008,05,07,00,53,7.70
2008,05,07,00,54,7.60
2008,05,07,00,55,7.60
2008,05,07,00,56,7.60
2008,05,07,00,57,7.60
2008,05,07,00,58,7.60
2008,05,07,00,59,7.60
2008,05,07,01,00,7.60
2008,05,07,01,01,7.60
2008,05,07,01,02,7.60
2008,05,07,01,03,7.60
2008,05,07,01,04,7.60
2008,05,07,01,05,7.70
2008,05,07,01,06,7.70
2008,05,07,01,07,7.70
2008,05,07,01,08,7.70
2008,05,07,01,09,7.70
2008,05,07,01,10,7.70
2008,05,07,01,11,7.70
2008,05,07,01,12,7.60
2008,05,07,01,13,7.60
2008,05,07,01,14,7.60
2008,05,07,01,15,7.60
2008,05,07,01,16,7.60
2008,05,07,01,17,7.60
2008,05,07,01,18,7.60
2008,05,07,01,19,7.60
2008,05,07,01,20,7.60
2008,05,07,01,21,7.60
2008,05,07,01,22,7.60
2008,05,07,01,23,7.60
2008,05,07,01,24,7.60
2008,05,07,01,25,7.60
2008,05,07,01,26,7.60
2008,05,07,01,27,7.60
2008,05,07,01,28,7.60
2008,05,07,01,29,7.60
2008,05,07,01,30,7.60
2008,05,07,01,31,7.60
2008,05,07,01,32,7.50
2008,05,07,01,33,7.50
2008,05,07,01,34,7.50
2008,05,07,01,35,7.50
2008,05,07,01,36,7.40
2008,05,07,01,37,7.50
2008,05,07,01,38,7.50
2008,05,07,01,39,7.50
2008,05,07,01,40,7.60
2008,05,07,01,41,7.60
2008,05,07,01,42,7.70
2008,05,07,01,43,7.70
2008,05,07,01,44,7.80
2008,05,07,01,45,7.80
2008,05,07,01,46,7.90
2008,05,07,01,47,7.90
2008,05,07,01,48,8.00
2008,05,07,01,49,8.00
2008,05,07,01,50,8.10
2008,05,07,01,51,8.10
2008,05,07,01,52,8.20
2008,05,07,01,53,8.20
2008,05,07,01,54,8.10
2008,05,07,01,55,8.10
2008,05,07,01,56,8.10
2008,05,07,01,57,8.00
2008,05,07,01,58,7.90
2008,05,07,01,59,7.90
2008,05,07,02,00,7.80
2008,05,07,02,01,7.80
2008,05,07,02,02,7.80
2008,05,07,02,03,7.70
2008,05,07,02,04,7.70
2008,05,07,02,05,7.70
2008,05,07,02,06,7.70
2008,05,07,02,07,7.70
2008,05,07,02,08,7.60
2008,05,07,02,09,7.60
2008,05,07,02,10,7.60
2008,05,07,02,11,7.50
2008,05,07,02,12,7.50
2008,05,07,02,13,7.40
2008,05,07,02,14,7.40
2008,05,07,02,15,7.40
2008,05,07,02,16,7.40
2008,05,07,02,17,7.40
2008,05,07,02,18,7.40
2008,05,07,02,19,7.40
2008,05,07,02,20,7.40
2008,05,07,02,21,7.30
2008,05,07,02,22,7.30
2008,05,07,02,23,7.30
2008,05,07,02,24,7.30
2008,05,07,02,25,7.30
2008,05,07,02,26,7.30
2008,05,07,02,27,7.40
2008,05,07,02,28,7.40
2008,05,07,02,29,7.40
2008,05,07,02,30,7.40
2008,05,07,02,31,7.40
2008,05,07,02,32,7.40
2008,05,07,02,33,7.40
2008,05,07,02,34,7.40
2008,05,07,02,35,7.40
2008,05,07,02,36,7.40
2008,05,07,02,37,7.40
2008,05,07,02,38,7.30
2008,05,07,02,39,7.30
2008,05,07,02,40,7.40
2008,05,07,02,41,7.40
2008,05,07,02,42,7.40
2008,05,07,02,43,7.40
2008,05,07,02,44,7.40
2008,05,07,02,45,7.40
2008,05,07,02,46,7.40
2008,05,07,02,47,7.40
2008,05,07,02,48,7.40
2008,05,07,02,49,7.40
2008,05,07,02,50,7.40
2008,05,07,02,51,7.40
2008,05,07,02,52,7.40
2008,05,07,02,53,7.40
2008,05,07,02,54,7.40
2008,05,07,02,55,7.40
2008,05,07,02,56,7.40
2008,05,07,02,57,7.40
2008,05,07,02,58,7.40
2008,05,07,02,59,7.40
2008,05,07,03,00,7.40
2008,05,07,03,01,7.30
2008,05,07,03,02,7.30
2008,05,07,03,03,7.30
2008,05,07,03,04,7.30
2008,05,07,03,05,7.30
2008,05,07,03,06,7.30
2008,05,07,03,07,7.30
2008,05,07,03,08,7.30
2008,05,07,03,09,7.30
2008,05,07,03,10,7.30
2008,05,07,03,11,7.30
2008,05,07,03,12,7.30
2008,05,07,03,13,7.30
2008,05,07,03,14,7.30
2008,05,07,03,15,7.30
2008,05,07,03,16,7.30
2008,05,07,03,17,7.40
2008,05,07,03,18,7.40
2008,05,07,03,19,7.40
2008,05,07,03,20,7.40
2008,05,07,03,21,7.40
2008,05,07,03,22,7.40
2008,05,07,03,23,7.50
2008,05,07,03,24,7.50
2008,05,07,03,25,7.60
2008,05,07,03,26,7.60
2008,05,07,03,27,7.60
2008,05,07,03,28,7.70
2008,05,07,03,29,7.70
2008,05,07,03,30,7.80
2008,05,07,03,31,7.80
2008,05,07,03,32,7.80
2008,05,07,03,33,7.90
2008,05,07,03,34,7.90
2008,05,07,03,35,8.00
2008,05,07,03,36,8.00
2008,05,07,03,37,8.00
2008,05,07,03,38,8.10
2008,05,07,03,39,8.10
2008,05,07,03,40,8.10
2008,05,07,03,41,8.10
2008,05,07,03,42,8.10
2008,05,07,03,43,8.20
2008,05,07,03,44,8.20
2008,05,07,03,45,8.20
2008,05,07,03,46,8.20
2008,05,07,03,47,8.20
2008,05,07,03,48,8.20
2008,05,07,03,49,8.20
2008,05,07,03,50,8.20
2008,05,07,03,51,8.20
2008,05,07,03,52,8.20
2008,05,07,03,53,8.20
2008,05,07,03,54,8.20
2008,05,07,03,55,8.20
2008,05,07,03,56,8.20
2008,05,07,03,57,8.20
2008,05,07,03,58,8.20
2008,05,07,03,59,8.20
2008,05,07,04,00,8.20
2008,05,07,04,01,8.20
2008,05,07,04,02,8.20
2008,05,07,04,03,8.20
2008,05,07,04,04,8.20
2008,05,07,04,05,8.20
2008,05,07,04,06,8.20
2008,05,07,04,07,8.20
2008,05,07,04,08,8.20
2008,05,07,04,09,8.20
2008,05,07,04,10,8.20
2008,05,07,04,11,8.20
2008,05,07,04,12,8.20
2008,05,07,04,13,8.20
2008,05,07,04,14,8.20
2008,05,07,04,15,8.20
2008,05,07,04,16,8.20
2008,05,07,04,17,8.20
2008,05,07,04,18,8.20
2008,05,07,04,19,8.20
2008,05,07,04,20,8.20
2008,05,07,04,21,8.20
2008,05,07,04,22,8.20
2008,05,07,04,23,8.20
2008,05,07,04,24,8.20
2008,05,07,04,25,8.20
2008,05,07,04,26,8.20
2008,05,07,04,27,8.20
2008,05,07,04,28,8.20
2008,05,07,04,29,8.20
2008,05,07,04,30,8.20
2008,05,07,04,31,8.20
2008,05,07,04,32,8.20
2008,05,07,04,33,8.10
2008,05,07,04,34,8.10
2008,05,07,04,35,8.10
2008,05,07,04,36,8.10
2008,05,07,04,37,8.00
2008,05,07,04,38,8.00
2008,05,07,04,39,8.00
2008,05,07,04,40,8.00
2008,05,07,04,41,7.90
2008,05,07,04,42,7.90
2008,05,07,04,43,7.90
2008,05,07,04,44,7.90
2008,05,07,04,45,7.80
2008,05,07,04,46,7.80
2008,05,07,04,47,7.80
2008,05,07,04,48,7.70
2008,05,07,04,49,7.70
2008,05,07,04,50,7.70
2008,05,07,04,51,7.70
2008,05,07,04,52,7.70
2008,05,07,04,53,7.70
2008,05,07,04,54,7.70
2008,05,07,04,55,7.70
2008,05,07,04,56,7.70
2008,05,07,04,57,7.70
2008,05,07,04,58,7.70
2008,05,07,04,59,7.70
2008,05,07,05,00,7.60
2008,05,07,05,01,7.60
2008,05,07,05,02,7.60
2008,05,07,05,03,7.60
2008,05,07,05,04,7.60
2008,05,07,05,05,7.60
2008,05,07,05,06,7.60
2008,05,07,05,07,7.60
2008,05,07,05,08,7.50
2008,05,07,05,09,7.50
2008,05,07,05,10,7.50
2008,05,07,05,11,7.40
2008,05,07,05,12,7.40
2008,05,07,05,13,7.40
2008,05,07,05,14,7.40
2008,05,07,05,15,7.40
2008,05,07,05,16,7.40
2008,05,07,05,17,7.40
2008,05,07,05,18,7.40
2008,05,07,05,19,7.40
2008,05,07,05,20,7.40
2008,05,07,05,21,7.40
2008,05,07,05,22,7.40
2008,05,07,05,23,7.40
2008,05,07,05,24,7.40
2008,05,07,05,25,7.40
2008,05,07,05,26,7.40
2008,05,07,05,27,7.40
2008,05,07,05,28,7.40
2008,05,07,05,29,7.40
2008,05,07,05,30,7.40
2008,05,07,05,31,7.40
2008,05,07,05,32,7.40
2008,05,07,05,33,7.40
2008,05,07,05,34,7.40
2008,05,07,05,35,7.40
2008,05,07,05,36,7.50
2008,05,07,05,37,7.50
2008,05,07,05,38,7.50
2008,05,07,05,39,7.60
2008,05,07,05,40,7.60
2008,05,07,05,41,7.60
2008,05,07,05,42,7.60
2008,05,07,05,43,7.70
2008,05,07,05,44,7.70
2008,05,07,05,45,7.70
2008,05,07,05,46,7.70
2008,05,07,05,47,7.70
2008,05,07,05,48,7.80
2008,05,07,05,49,7.80
2008,05,07,05,50,7.80
2008,05,07,05,51,7.80
2008,05,07,05,52,7.80
2008,05,07,05,53,7.80
2008,05,07,05,54,7.90
2008,05,07,05,55,7.90
2008,05,07,05,56,7.90
2008,05,07,05,57,7.90
2008,05,07,05,58,7.90
2008,05,07,05,59,7.90
2008,05,07,06,00,7.90
2008,05,07,06,01,7.90
2008,05,07,06,02,7.90
2008,05,07,06,03,7.90
2008,05,07,06,04,7.90
2008,05,07,06,05,7.90
2008,05,07,06,06,8.00
2008,05,07,06,07,8.00
2008,05,07,06,08,8.00
2008,05,07,06,09,8.00
2008,05,07,06,10,8.10
2008,05,07,06,11,8.10
2008,05,07,06,12,8.10
2008,05,07,06,13,8.10
2008,05,07,06,14,8.10
2008,05,07,06,15,8.10
2008,05,07,06,16,8.10
2008,05,07,06,17,8.10
2008,05,07,06,18,8.10
2008,05,07,06,19,8.10
2008,05,07,06,20,8.10
2008,05,07,06,21,8.20
2008,05,07,06,22,8.20
2008,05,07,06,23,8.20
2008,05,07,06,24,8.20
2008,05,07,06,25,8.20
2008,05,07,06,26,8.20
2008,05,07,06,27,8.20
2008,05,07,06,28,8.20
2008,05,07,06,29,8.20
2008,05,07,06,30,8.20
2008,05,07,06,31,8.20
2008,05,07,06,32,8.20
2008,05,07,06,33,8.30
2008,05,07,06,34,8.30
2008,05,07,06,35,8.30
2008,05,07,06,36,8.30
2008,05,07,06,37,8.30
2008,05,07,06,38,8.30
2008,05,07,06,39,8.30
2008,05,07,06,40,8.30
2008,05,07,06,41,8.40
2008,05,07,06,42,8.40
2008,05,07,06,43,8.40
2008,05,07,06,44,8.40
2008,05,07,06,45,8.40
2008,05,07,06,46,8.40
2008,05,07,06,47,8.40
2008,05,07,06,48,8.40
2008,05,07,06,49,8.40
2008,05,07,06,50,8.40
2008,05,07,06,51,8.40
2008,05,07,06,52,8.50
2008,05,07,06,53,8.50
2008,05,07,06,54,8.50
2008,05,07,06,55,8.50
2008,05,07,06,56,8.50
2008,05,07,06,57,8.50
2008,05,07,06,58,8.50
2008,05,07,06,59,8.50
2008,05,07,07,00,8.50
2008,05,07,07,01,8.50
2008,05,07,07,02,8.50
2008,05,07,07,03,8.50
2008,05,07,07,04,8.50
2008,05,07,07,05,8.50
2008,05,07,07,06,8.50
2008,05,07,07,07,8.60
2008,05,07,07,08,8.60
2008,05,07,07,09,8.60
2008,05,07,07,10,8.60
2008,05,07,07,11,8.60
2008,05,07,07,12,8.60
2008,05,07,07,13,8.60
2008,05,07,07,14,8.60
2008,05,07,07,15,8.60
2008,05,07,07,16,8.60
2008,05,07,07,17,8.60
2008,05,07,07,18,8.60
2008,05,07,07,19,8.60
2008,05,07,07,20,8.60
2008,05,07,07,21,8.60
2008,05,07,07,22,8.60
2008,05,07,07,23,8.60
2008,05,07,07,24,8.70
2008,05,07,07,25,8.70
2008,05,07,07,26,8.70
2008,05,07,07,27,8.70
2008,05,07,07,28,8.70
2008,05,07,07,29,8.70
2008,05,07,07,30,8.70
2008,05,07,07,31,8.70
2008,05,07,07,32,8.70
2008,05,07,07,33,8.70
2008,05,07,07,34,8.70
2008,05,07,07,35,8.80
2008,05,07,07,36,8.80
2008,05,07,07,37,8.80
2008,05,07,07,38,8.80
2008,05,07,07,39,8.80
2008,05,07,07,40,8.80
2008,05,07,07,41,8.80
2008,05,07,07,42,8.80
2008,05,07,07,43,8.80
2008,05,07,07,44,8.90
2008,05,07,07,45,8.90
2008,05,07,07,46,8.90
2008,05,07,07,47,8.90
2008,05,07,07,48,8.90
2008,05,07,07,49,8.90
2008,05,07,07,50,8.90
2008,05,07,07,51,8.90
2008,05,07,07,52,8.90
2008,05,07,07,53,8.90
2008,05,07,07,54,8.90
2008,05,07,07,55,8.90
2008,05,07,07,56,8.90
2008,05,07,07,57,8.90
2008,05,07,07,58,8.90
2008,05,07,07,59,8.90
2008,05,07,08,00,8.90
2008,05,07,08,01,8.90
2008,05,07,08,02,8.90
2008,05,07,08,03,8.90
2008,05,07,08,04,8.90
2008,05,07,08,05,8.90
2008,05,07,08,06,8.90
2008,05,07,08,07,9.00
2008,05,07,08,08,9.00
2008,05,07,08,09,9.00
2008,05,07,08,10,9.00
2008,05,07,08,11,9.00
2008,05,07,08,12,9.00
2008,05,07,08,13,9.00
2008,05,07,08,14,9.00
2008,05,07,08,15,9.00
2008,05,07,08,16,9.00
2008,05,07,08,17,9.00
2008,05,07,08,18,9.00
2008,05,07,08,19,9.00
2008,05,07,08,20,9.00
2008,05,07,08,21,9.00
2008,05,07,08,22,9.00
2008,05,07,08,23,9.00
2008,05,07,08,24,9.00
2008,05,07,08,25,9.00
2008,05,07,08,26,9.00
2008,05,07,08,27,8.90
2008,05,07,08,28,8.90
2008,05,07,08,29,8.90
2008,05,07,08,30,9.00
2008,05,07,08,31,9.00
2008,05,07,08,32,9.00
2008,05,07,08,33,9.00
2008,05,07,08,34,9.00
2008,05,07,08,35,9.00
2008,05,07,08,36,9.00
2008,05,07,08,37,9.00
2008,05,07,08,38,9.00
2008,05,07,08,39,9.10
2008,05,07,08,40,9.10
2008,05,07,08,41,9.10
2008,05,07,08,42,9.10
2008,05,07,08,43,9.10
2008,05,07,08,44,9.20
2008,05,07,08,45,9.20
2008,05,07,08,46,9.20
2008,05,07,08,47,9.20
2008,05,07,08,48,9.20
2008,05,07,08,49,9.20
2008,05,07,08,50,9.20
2008,05,07,08,51,9.20
2008,05,07,08,52,9.20
2008,05,07,08,53,9.20
2008,05,07,08,54,9.20
2008,05,07,08,55,9.20
2008,05,07,08,56,9.20
2008,05,07,08,57,9.20
2008,05,07,08,58,9.20
2008,05,07,08,59,9.20
2008,05,07,09,00,9.20
2008,05,07,09,01,9.20
2008,05,07,09,02,9.20
2008,05,07,09,03,9.20
2008,05,07,09,04,9.20
2008,05,07,09,05,9.20
2008,05,07,09,06,9.20
2008,05,07,09,07,9.20
2008,05,07,09,08,9.20
2008,05,07,09,09,9.20
2008,05,07,09,10,9.20
2008,05,07,09,11,9.20
2008,05,07,09,12,9.20
2008,05,07,09,13,9.20
2008,05,07,09,14,9.20
2008,05,07,09,15,9.20
2008,05,07,09,16,9.20
2008,05,07,09,17,9.30
2008,05,07,09,18,9.30
2008,05,07,09,19,9.30
2008,05,07,09,20,9.20
2008,05,07,09,21,9.20
2008,05,07,09,22,9.20
2008,05,07,09,23,9.20
2008,05,07,09,24,9.20
2008,05,07,09,25,9.20
2008,05,07,09,26,9.20
2008,05,07,09,27,9.20
2008,05,07,09,28,9.20
2008,05,07,09,29,9.20
2008,05,07,09,30,9.20
2008,05,07,09,31,9.20
2008,05,07,09,32,9.20
2008,05,07,09,33,9.20
2008,05,07,09,34,9.20
2008,05,07,09,35,9.20
2008,05,07,09,36,9.20
2008,05,07,09,37,9.20
2008,05,07,09,38,9.30
2008,05,07,09,39,9.30
2008,05,07,09,40,9.30
2008,05,07,09,41,9.30
2008,05,07,09,42,9.30
2008,05,07,09,43,9.30
2008,05,07,09,44,9.30
2008,05,07,09,45,9.30
2008,05,07,09,46,9.30
2008,05,07,09,47,9.30
2008,05,07,09,48,9.30
2008,05,07,09,49,9.30
2008,05,07,09,50,9.30
2008,05,07,09,51,9.30
2008,05,07,09,52,9.30
2008,05,07,09,53,9.30
2008,05,07,09,54,9.30
2008,05,07,09,55,9.20
2008,05,07,09,56,9.20
2008,05,07,09,57,9.20
2008,05,07,09,58,9.20
2008,05,07,09,59,9.20
2008,05,07,10,00,9.20
2008,05,07,10,01,9.20
2008,05,07,10,02,9.20
2008,05,07,10,03,9.20
2008,05,07,10,04,9.20
2008,05,07,10,05,9.20
2008,05,07,10,06,9.10
2008,05,07,10,07,9.10
2008,05,07,10,08,9.10
2008,05,07,10,09,9.10
2008,05,07,10,10,9.10
2008,05,07,10,11,9.10
2008,05,07,10,12,9.10
2008,05,07,10,13,9.10
2008,05,07,10,14,9.20
2008,05,07,10,15,9.20
2008,05,07,10,16,9.20
2008,05,07,10,17,9.20
2008,05,07,10,18,9.20
2008,05,07,10,19,9.20
2008,05,07,10,20,9.20
2008,05,07,10,21,9.20
2008,05,07,10,22,9.30
2008,05,07,10,23,9.30
2008,05,07,10,24,9.30
2008,05,07,10,25,9.30
2008,05,07,10,26,9.30
2008,05,07,10,27,9.30
2008,05,07,10,28,9.30
2008,05,07,10,29,9.30
2008,05,07,10,30,9.30
2008,05,07,10,31,9.20
2008,05,07,10,32,9.20
2008,05,07,10,33,9.20
2008,05,07,10,34,9.30
2008,05,07,10,35,9.30
2008,05,07,10,36,9.30
2008,05,07,10,37,9.40
2008,05,07,10,38,9.50
2008,05,07,10,39,9.60
2008,05,07,10,40,9.60
2008,05,07,10,41,9.60
2008,05,07,10,42,9.70
2008,05,07,10,43,9.70
2008,05,07,10,44,9.70
2008,05,07,10,45,9.70
2008,05,07,10,46,9.70
2008,05,07,10,47,9.70
2008,05,07,10,48,9.70
2008,05,07,10,49,9.70
2008,05,07,10,50,9.80
2008,05,07,10,51,9.80
2008,05,07,10,52,9.90
2008,05,07,10,53,9.90
2008,05,07,10,54,9.80
2008,05,07,10,55,9.80
2008,05,07,10,56,9.80
2008,05,07,10,57,9.70
2008,05,07,10,58,9.70
2008,05,07,10,59,9.70
2008,05,07,11,00,9.70
2008,05,07,11,01,9.80
2008,05,07,11,02,9.80
2008,05,07,11,03,9.90
2008,05,07,11,04,9.90
2008,05,07,11,05,9.90
2008,05,07,11,06,9.80
2008,05,07,11,07,9.70
2008,05,07,11,08,9.60
2008,05,07,11,09,9.60
2008,05,07,11,10,9.60
2008,05,07,11,11,9.50
2008,05,07,11,12,9.50
2008,05,07,11,13,9.60
2008,05,07,11,14,9.60
2008,05,07,11,15,9.70
2008,05,07,11,16,9.70
2008,05,07,11,17,9.60
2008,05,07,11,18,9.70
2008,05,07,11,19,9.70
2008,05,07,11,20,9.70
2008,05,07,11,21,9.70
2008,05,07,11,22,9.80
2008,05,07,11,23,9.80
2008,05,07,11,24,9.80
2008,05,07,11,25,9.70
2008,05,07,11,26,9.70
2008,05,07,11,27,9.70
2008,05,07,11,28,9.80
2008,05,07,11,29,9.80
2008,05,07,11,30,9.80
2008,05,07,11,31,9.90
2008,05,07,11,32,9.90
2008,05,07,11,33,9.90
2008,05,07,11,34,9.80
2008,05,07,11,35,9.80
2008,05,07,11,36,9.80
2008,05,07,11,37,9.80
2008,05,07,11,38,9.70
2008,05,07,11,39,9.70
2008,05,07,11,40,9.70
2008,05,07,11,41,9.70
2008,05,07,11,42,9.70
2008,05,07,11,43,9.60
2008,05,07,11,44,9.60
2008,05,07,11,45,9.70
2008,05,07,11,46,9.70
2008,05,07,11,47,9.70
2008,05,07,11,48,9.70
2008,05,07,11,49,9.70
2008,05,07,11,50,9.80
2008,05,07,11,51,9.80
2008,05,07,11,52,9.80
2008,05,07,11,53,9.90
2008,05,07,11,54,9.80
2008,05,07,11,55,9.80
2008,05,07,11,56,9.90
2008,05,07,11,57,9.90
2008,05,07,11,58,9.90
2008,05,07,11,59,10.00
2008,05,07,12,00,10.10
2008,05,07,12,01,10.10
2008,05,07,12,02,10.10
2008,05,07,12,03,10.00
2008,05,07,12,04,10.00
2008,05,07,12,05,9.90
2008,05,07,12,06,10.00
2008,05,07,12,07,10.10
2008,05,07,12,08,10.00
2008,05,07,12,09,9.90
2008,05,07,12,10,9.90
2008,05,07,12,11,9.90
2008,05,07,12,12,9.90
2008,05,07,12,13,9.80
2008,05,07,12,14,9.80
2008,05,07,12,15,9.80
2008,05,07,12,16,9.80
2008,05,07,12,17,9.90
2008,05,07,12,18,9.90
2008,05,07,12,19,10.00
2008,05,07,12,20,10.10
2008,05,07,12,21,10.20
2008,05,07,12,22,10.40
2008,05,07,12,23,10.50
2008,05,07,12,24,10.40
2008,05,07,12,25,10.30
2008,05,07,12,26,10.30
2008,05,07,12,27,10.30
2008,05,07,12,28,10.30
2008,05,07,12,29,10.20
2008,05,07,12,30,10.10
2008,05,07,12,31,10.10
2008,05,07,12,32,10.20
2008,05,07,12,33,10.20
2008,05,07,12,34,10.20
2008,05,07,12,35,10.20
2008,05,07,12,36,10.20
2008,05,07,12,37,10.20
2008,05,07,12,38,10.10
2008,05,07,12,39,10.00
2008,05,07,12,40,10.10
2008,05,07,12,41,10.20
2008,05,07,12,42,10.30
2008,05,07,12,43,10.30
2008,05,07,12,44,10.20
2008,05,07,12,45,10.20
2008,05,07,12,46,10.30
2008,05,07,12,47,10.40
2008,05,07,12,48,10.40
2008,05,07,12,49,10.40
2008,05,07,12,50,10.30
2008,05,07,12,51,10.30
2008,05,07,12,52,10.20
2008,05,07,12,53,10.20
2008,05,07,12,54,10.20
2008,05,07,12,55,10.20
2008,05,07,12,56,10.20
2008,05,07,12,57,10.30
2008,05,07,12,58,10.50
2008,05,07,12,59,10.50
2008,05,07,13,00,10.40
2008,05,07,13,01,10.30
2008,05,07,13,02,10.30
2008,05,07,13,03,10.30
2008,05,07,13,04,10.30
2008,05,07,13,05,10.30
2008,05,07,13,06,10.30
2008,05,07,13,07,10.30
2008,05,07,13,08,10.20
2008,05,07,13,09,10.20
2008,05,07,13,10,10.30
2008,05,07,13,11,10.40
2008,05,07,13,12,10.50
2008,05,07,13,13,10.60
2008,05,07,13,14,10.50
2008,05,07,13,15,10.40
2008,05,07,13,16,10.30
2008,05,07,13,17,10.20
2008,05,07,13,18,10.10
2008,05,07,13,19,10.10
2008,05,07,13,20,10.00
2008,05,07,13,21,10.00
2008,05,07,13,22,10.00
2008,05,07,13,23,10.10
2008,05,07,13,24,10.30
2008,05,07,13,25,10.60
2008,05,07,13,26,10.70
2008,05,07,13,27,10.70
2008,05,07,13,28,10.80
2008,05,07,13,29,10.90
2008,05,07,13,30,10.90
2008,05,07,13,31,10.80
2008,05,07,13,32,10.70
2008,05,07,13,33,10.60
2008,05,07,13,34,10.40
2008,05,07,13,35,10.30
2008,05,07,13,36,10.30
2008,05,07,13,37,10.30
2008,05,07,13,38,10.30
2008,05,07,13,39,10.30
2008,05,07,13,40,10.30
2008,05,07,13,41,10.30
2008,05,07,13,42,10.30
2008,05,07,13,43,10.30
2008,05,07,13,44,10.30
2008,05,07,13,45,10.50
2008,05,07,13,46,10.60
2008,05,07,13,47,10.80
2008,05,07,13,48,10.90
2008,05,07,13,49,10.80
2008,05,07,13,50,10.70
2008,05,07,13,51,10.60
2008,05,07,13,52,10.50
2008,05,07,13,53,10.40
2008,05,07,13,54,10.40
2008,05,07,13,55,10.40
2008,05,07,13,56,10.60
2008,05,07,13,57,10.70
2008,05,07,13,58,10.70
2008,05,07,13,59,10.60
2008,05,07,14,00,10.50
2008,05,07,14,01,10.40
2008,05,07,14,02,10.30
2008,05,07,14,03,10.30
2008,05,07,14,04,10.20
2008,05,07,14,05,10.20
2008,05,07,14,06,10.30
2008,05,07,14,07,10.30
2008,05,07,14,08,10.30
2008,05,07,14,09,10.40
2008,05,07,14,10,10.40
2008,05,07,14,11,10.50
2008,05,07,14,12,10.60
2008,05,07,14,13,10.60
2008,05,07,14,14,10.70
2008,05,07,14,15,10.80
2008,05,07,14,16,10.90
2008,05,07,14,17,10.80
2008,05,07,14,18,10.80
2008,05,07,14,19,10.80
2008,05,07,14,20,10.70
2008,05,07,14,21,10.70
2008,05,07,14,22,10.60
2008,05,07,14,23,10.70
2008,05,07,14,24,10.70
2008,05,07,14,25,10.70
2008,05,07,14,26,10.70
2008,05,07,14,27,10.80
2008,05,07,14,28,10.80
2008,05,07,14,29,10.90
2008,05,07,14,30,11.10
2008,05,07,14,31,11.20
2008,05,07,14,32,11.30
2008,05,07,14,33,11.40
2008,05,07,14,34,11.30
2008,05,07,14,35,11.20
2008,05,07,14,36,11.10
2008,05,07,14,37,11.00
2008,05,07,14,38,11.10
2008,05,07,14,39,11.10
2008,05,07,14,40,11.10
2008,05,07,14,41,11.10
2008,05,07,14,42,11.10
2008,05,07,14,43,11.10
2008,05,07,14,44,11.10
2008,05,07,14,45,11.10
2008,05,07,14,46,11.20
2008,05,07,14,47,11.20
2008,05,07,14,48,11.20
2008,05,07,14,49,11.20
2008,05,07,14,50,11.20
2008,05,07,14,51,11.20
2008,05,07,14,52,11.20
2008,05,07,14,53,11.20
2008,05,07,14,54,11.10
2008,05,07,14,55,11.10
2008,05,07,14,56,11.00
2008,05,07,14,57,10.90
2008,05,07,14,58,10.80
2008,05,07,14,59,10.70
2008,05,07,15,00,10.70
2008,05,07,15,01,10.80
2008,05,07,15,02,10.80
2008,05,07,15,03,10.70
2008,05,07,15,04,10.70
2008,05,07,15,05,10.80
2008,05,07,15,06,10.80
2008,05,07,15,07,10.90
2008,05,07,15,08,11.00
2008,05,07,15,09,11.10
2008,05,07,15,10,11.20
2008,05,07,15,11,11.20
2008,05,07,15,12,11.20
2008,05,07,15,13,11.20
2008,05,07,15,14,11.20
2008,05,07,15,15,11.20
2008,05,07,15,16,11.20
2008,05,07,15,17,11.10
2008,05,07,15,18,11.00
2008,05,07,15,19,11.00
2008,05,07,15,20,11.00
2008,05,07,15,21,11.10
2008,05,07,15,22,11.10
2008,05,07,15,23,11.10
2008,05,07,15,24,11.00
2008,05,07,15,25,11.00
2008,05,07,15,26,11.00
2008,05,07,15,27,11.00
2008,05,07,15,28,11.00
2008,05,07,15,29,11.00
2008,05,07,15,30,11.00
2008,05,07,15,31,10.90
2008,05,07,15,32,10.80
2008,05,07,15,33,10.80
2008,05,07,15,34,10.70
2008,05,07,15,35,10.80
2008,05,07,15,36,10.80
2008,05,07,15,37,10.80
2008,05,07,15,38,10.80
2008,05,07,15,39,10.70
2008,05,07,15,40,10.70
2008,05,07,15,41,10.80
2008,05,07,15,42,10.80
2008,05,07,15,43,10.80
2008,05,07,15,44,10.90
2008,05,07,15,45,10.90
2008,05,07,15,46,11.00
2008,05,07,15,47,11.10
2008,05,07,15,48,11.10
2008,05,07,15,49,11.10
2008,05,07,15,50,11.20
2008,05,07,15,51,11.20
2008,05,07,15,52,11.20
2008,05,07,15,53,11.30
2008,05,07,15,54,11.30
2008,05,07,15,55,11.30
2008,05,07,15,56,11.40
2008,05,07,15,57,11.50
2008,05,07,15,58,11.50
2008,05,07,15,59,11.50
2008,05,07,16,00,11.40
2008,05,07,16,01,11.30
2008,05,07,16,02,11.30
2008,05,07,16,03,11.20
2008,05,07,16,04,11.20
2008,05,07,16,05,11.10
2008,05,07,16,06,11.10
2008,05,07,16,07,11.00
2008,05,07,16,08,10.90
2008,05,07,16,09,10.80
2008,05,07,16,10,10.80
2008,05,07,16,11,10.80
2008,05,07,16,12,10.80
2008,05,07,16,13,10.80
2008,05,07,16,14,10.90
2008,05,07,16,15,10.90
2008,05,07,16,16,10.90
2008,05,07,16,17,10.80
2008,05,07,16,18,10.80
2008,05,07,16,19,10.70
2008,05,07,16,20,10.80
2008,05,07,16,21,10.90
2008,05,07,16,22,11.00
2008,05,07,16,23,11.10
2008,05,07,16,24,11.30
2008,05,07,16,25,11.40
2008,05,07,16,26,11.40
2008,05,07,16,27,11.50
2008,05,07,16,28,11.50
2008,05,07,16,29,11.50
2008,05,07,16,30,11.40
2008,05,07,16,31,11.30
2008,05,07,16,32,11.20
2008,05,07,16,33,11.10
2008,05,07,16,34,11.00
2008,05,07,16,35,11.00
2008,05,07,16,36,11.00
2008,05,07,16,37,11.10
2008,05,07,16,38,11.10
2008,05,07,16,39,11.20
2008,05,07,16,40,11.20
2008,05,07,16,41,11.30
2008,05,07,16,42,11.30
2008,05,07,16,43,11.30
2008,05,07,16,44,11.30
2008,05,07,16,45,11.40
2008,05,07,16,46,11.40
2008,05,07,16,47,11.40
2008,05,07,16,48,11.60
2008,05,07,16,49,11.60
2008,05,07,16,50,11.60
2008,05,07,16,51,11.60
2008,05,07,16,52,11.50
2008,05,07,16,53,11.40
2008,05,07,16,54,11.30
2008,05,07,16,55,11.30
2008,05,07,16,56,11.30
2008,05,07,16,57,11.30
2008,05,07,16,58,11.40
2008,05,07,16,59,11.40
2008,05,07,17,00,11.40
2008,05,07,17,01,11.40
2008,05,07,17,02,11.30
2008,05,07,17,03,11.20
2008,05,07,17,04,11.10
2008,05,07,17,05,11.10
2008,05,07,17,06,11.20
2008,05,07,17,07,11.20
2008,05,07,17,08,11.30
2008,05,07,17,09,11.20
2008,05,07,17,10,11.20
2008,05,07,17,11,11.10
2008,05,07,17,12,11.10
2008,05,07,17,13,11.10
2008,05,07,17,14,11.10
2008,05,07,17,15,11.10
2008,05,07,17,16,11.00
2008,05,07,17,17,11.00
2008,05,07,17,18,10.90
2008,05,07,17,19,10.90
2008,05,07,17,20,10.80
2008,05,07,17,21,10.80
2008,05,07,17,22,10.80
2008,05,07,17,23,10.80
2008,05,07,17,24,10.80
2008,05,07,17,25,10.80
2008,05,07,17,26,10.80
2008,05,07,17,27,10.80
2008,05,07,17,28,10.80
2008,05,07,17,29,10.80
2008,05,07,17,30,10.80
2008,05,07,17,31,10.80
2008,05,07,17,32,10.80
2008,05,07,17,33,10.80
2008,05,07,17,34,10.70
2008,05,07,17,35,10.70
2008,05,07,17,36,10.80
2008,05,07,17,37,10.80
2008,05,07,17,38,10.80
2008,05,07,17,39,10.80
2008,05,07,17,40,10.80
2008,05,07,17,41,10.70
2008,05,07,17,42,10.70
2008,05,07,17,43,10.70
2008,05,07,17,44,10.70
2008,05,07,17,45,10.60
2008,05,07,17,46,10.60
2008,05,07,17,47,10.70
2008,05,07,17,48,10.70
2008,05,07,17,49,10.70
2008,05,07,17,50,10.70
2008,05,07,17,51,10.70